N2843 KCOS-KCYS

Flight info

Callsign N2843
Flight time 1h 3m
Altitude 17000
Route FQF GLL V89 CYS
Aircraft C208/L-SDFGR/C

Departure

Time 2026-04-23 19:30
Airport City of Colorado Springs Municipal Airport (KCOS)

Arrival

Time 2026-04-23 20:33
Airport Cheyenne Regional Jerry Olson Field (KCYS)
Time Latitude Longitude Altitude Speed Heading
2026-04-23 19:21 38.80856 -104.72003 6306 ft 0 kts 355°
2026-04-23 19:25 38.80816 -104.71952 6310 ft 15 kts 182°
2026-04-23 19:26 38.80535 -104.71959 6307 ft 21 kts 180°
2026-04-23 19:26 38.80403 -104.71959 6306 ft 14 kts 179°
2026-04-23 19:27 38.80361 -104.71783 6309 ft 18 kts 98°
2026-04-23 19:27 38.79972 -104.71736 6305 ft 25 kts 181°
2026-04-23 19:28 38.79611 -104.71737 6309 ft 27 kts 178°
2026-04-23 19:28 38.79558 -104.71596 6309 ft 12 kts
2026-04-23 19:29 38.79710 -104.71595 6307 ft 52 kts 360°
2026-04-23 19:29 38.81021 -104.71564 6685 ft 110 kts 356°
2026-04-23 19:30 38.82592 -104.71290 7420 ft 118 kts
2026-04-23 19:30 38.83396 -104.71096 7742 ft 116 kts 358°
2026-04-23 19:30 38.84895 -104.70978 8380 ft 102 kts 334°
2026-04-23 19:31 38.85605 -104.70683 8743 ft 126 kts 38°
2026-04-23 19:31 38.86199 -104.69900 9111 ft 117 kts 21°
2026-04-23 19:31 38.86929 -104.69586 9484 ft 107 kts 353°
2026-04-23 19:31 38.87680 -104.69456 9830 ft 110 kts 354°
2026-04-23 19:32 38.88446 -104.69358 10131 ft 111 kts 354°
2026-04-23 19:32 38.89205 -104.69268 10486 ft 109 kts 354°
2026-04-23 19:32 38.89960 -104.69193 10832 ft 109 kts 353°
2026-04-23 19:32 38.90722 -104.69121 11164 ft 111 kts 353°
2026-04-23 19:33 38.91489 -104.69057 11490 ft 111 kts 353°
2026-04-23 19:33 38.92259 -104.68985 11816 ft 111 kts 351°
2026-04-23 19:33 38.93816 -104.68840 12397 ft 112 kts 353°
2026-04-23 19:34 38.94599 -104.68774 12646 ft 113 kts 352°
2026-04-23 19:34 38.95381 -104.68708 12897 ft 112 kts 353°
2026-04-23 19:34 38.96960 -104.68568 13381 ft 114 kts 352°
2026-04-23 19:35 38.97753 -104.68498 13686 ft 115 kts 353°
2026-04-23 19:35 38.98556 -104.68429 13905 ft 116 kts 353°
2026-04-23 19:35 38.99357 -104.68354 14195 ft 115 kts 354°
2026-04-23 19:35 39.00159 -104.68279 14492 ft 116 kts 352°
2026-04-23 19:36 39.00968 -104.68207 14739 ft 117 kts 353°
2026-04-23 19:36 39.01786 -104.68141 15001 ft 119 kts 353°
2026-04-23 19:36 39.02613 -104.68063 15263 ft 120 kts 355°
2026-04-23 19:36 39.03442 -104.67991 15457 ft 119 kts 354°
2026-04-23 19:37 39.04274 -104.67916 15684 ft 120 kts 354°
2026-04-23 19:37 39.05110 -104.67835 15890 ft 121 kts 354°
2026-04-23 19:37 39.05951 -104.67766 16107 ft 121 kts 354°
2026-04-23 19:37 39.06794 -104.67685 16320 ft 122 kts 354°
2026-04-23 19:38 39.07642 -104.67617 16563 ft 123 kts 354°
2026-04-23 19:38 39.08498 -104.67537 16786 ft 124 kts 353°
2026-04-23 19:38 39.09367 -104.67461 16922 ft 130 kts 354°
2026-04-23 19:38 39.10303 -104.67383 16924 ft 139 kts 355°
2026-04-23 19:39 39.11284 -104.67296 16922 ft 144 kts 357°
2026-04-23 19:39 39.12292 -104.67200 16910 ft 146 kts 356°
2026-04-23 19:39 39.13311 -104.67109 16906 ft 147 kts 355°
2026-04-23 19:39 39.14324 -104.67019 16899 ft 146 kts 356°
2026-04-23 19:40 39.15341 -104.66929 16885 ft 147 kts 356°
2026-04-23 19:40 39.16363 -104.66834 16887 ft 147 kts 357°
2026-04-23 19:40 39.17386 -104.66741 16881 ft 147 kts 356°
2026-04-23 19:40 39.18409 -104.66656 16872 ft 148 kts 357°
2026-04-23 19:41 39.19434 -104.66564 16868 ft 148 kts 356°
2026-04-23 19:41 39.20457 -104.66471 16861 ft 147 kts 357°
2026-04-23 19:41 39.21471 -104.66378 16858 ft 146 kts 358°
2026-04-23 19:41 39.22499 -104.66287 16850 ft 146 kts 357°
2026-04-23 19:42 39.23514 -104.66194 16849 ft 146 kts 358°
2026-04-23 19:42 39.24185 -104.66133 16840 ft 146 kts 356°
2026-04-23 19:42 39.25526 -104.66019 16834 ft 145 kts 357°
2026-04-23 19:42 39.26204 -104.65957 16829 ft 144 kts 358°
2026-04-23 19:43 39.27197 -104.65869 16817 ft 142 kts 357°
2026-04-23 19:43 39.28183 -104.65777 16821 ft 142 kts 356°
2026-04-23 19:43 39.29159 -104.65686 16823 ft 140 kts 358°
2026-04-23 19:43 39.30132 -104.65603 16834 ft 140 kts 355°
2026-04-23 19:44 39.31104 -104.65516 16834 ft 139 kts 358°
2026-04-23 19:44 39.32068 -104.65433 16843 ft 139 kts 358°
2026-04-23 19:44 39.33036 -104.65345 16849 ft 139 kts 356°
2026-04-23 19:44 39.33999 -104.65256 16857 ft 139 kts 356°
2026-04-23 19:45 39.34961 -104.65168 16864 ft 138 kts 358°
2026-04-23 19:45 39.35917 -104.65083 16871 ft 138 kts 358°
2026-04-23 19:45 39.36879 -104.64999 16879 ft 139 kts 355°
2026-04-23 19:45 39.37844 -104.64910 16892 ft 140 kts 356°
2026-04-23 19:46 39.38818 -104.64826 16891 ft 140 kts 356°
2026-04-23 19:46 39.39795 -104.64736 16898 ft 142 kts 356°
2026-04-23 19:46 39.40780 -104.64647 16907 ft 142 kts 356°
2026-04-23 19:46 39.41765 -104.64560 16909 ft 142 kts 358°
2026-04-23 19:47 39.42746 -104.64469 16912 ft 141 kts 356°
2026-04-23 19:47 39.43718 -104.64382 16910 ft 139 kts 358°
2026-04-23 19:47 39.44679 -104.64296 16919 ft 139 kts 358°
2026-04-23 19:47 39.45637 -104.64209 16919 ft 138 kts 356°
2026-04-23 19:48 39.46565 -104.64129 16920 ft 137 kts 356°
2026-04-23 19:48 39.47467 -104.64046 16924 ft 137 kts 359°
2026-04-23 19:48 39.48417 -104.63961 16930 ft 138 kts 358°
2026-04-23 19:48 39.49378 -104.63873 16934 ft 138 kts 359°
2026-04-23 19:49 39.50342 -104.63790 16939 ft 139 kts 357°
2026-04-23 19:49 39.51306 -104.63695 16936 ft 138 kts 357°
2026-04-23 19:49 39.52263 -104.63614 16936 ft 138 kts 357°
2026-04-23 19:49 39.53224 -104.63526 16939 ft 139 kts 358°
2026-04-23 19:50 39.54189 -104.63441 16943 ft 140 kts 356°
2026-04-23 19:50 39.55165 -104.63355 16938 ft 141 kts 358°
2026-04-23 19:50 39.56142 -104.63263 16938 ft 141 kts 357°
2026-04-23 19:50 39.57116 -104.63175 16935 ft 140 kts 357°
2026-04-23 19:51 39.58090 -104.63075 16942 ft 141 kts
2026-04-23 19:51 39.59027 -104.62595 16940 ft 147 kts 16°
2026-04-23 19:51 39.60000 -104.62384 16945 ft 141 kts 356°
2026-04-23 19:51 39.60976 -104.62308 16946 ft 140 kts 356°
2026-04-23 19:52 39.61947 -104.62269 16954 ft 140 kts 355°
2026-04-23 19:52 39.62919 -104.62237 16956 ft 139 kts 356°
2026-04-23 19:52 39.63889 -104.62211 16961 ft 139 kts 355°
2026-04-23 19:52 39.64860 -104.62193 16963 ft 140 kts 354°
2026-04-23 19:53 39.65843 -104.62170 16966 ft 140 kts 354°
2026-04-23 19:53 39.66817 -104.62146 16970 ft 140 kts 355°
2026-04-23 19:53 39.67793 -104.62124 16970 ft 141 kts 355°
2026-04-23 19:53 39.68773 -104.62103 16975 ft 141 kts 355°
2026-04-23 19:54 39.69756 -104.62082 16970 ft 141 kts 355°
2026-04-23 19:54 39.70733 -104.62058 16969 ft 140 kts 355°
2026-04-23 19:54 39.71670 -104.62230 16961 ft 135 kts 338°
2026-04-23 19:54 39.72650 -104.62289 16908 ft 149 kts 356°
2026-04-23 19:55 39.73704 -104.62243 16952 ft 155 kts 357°
2026-04-23 19:55 39.74809 -104.62163 16958 ft 163 kts 358°
2026-04-23 19:55 39.75966 -104.62060 16981 ft 169 kts 358°
2026-04-23 19:55 39.77159 -104.61954 16987 ft 173 kts 359°
2026-04-23 19:56 39.78371 -104.61843 16991 ft 175 kts 359°
2026-04-23 19:56 39.79178 -104.61770 16981 ft 176 kts 359°
2026-04-23 19:56 39.80413 -104.61659 16986 ft 177 kts 359°
2026-04-23 19:57 39.81638 -104.61548 16978 ft 176 kts 359°
2026-04-23 19:57 39.82860 -104.61438 16987 ft 176 kts 359°
2026-04-23 19:57 39.84086 -104.61326 16988 ft 177 kts 359°
2026-04-23 19:57 39.85323 -104.61214 16990 ft 178 kts 359°
2026-04-23 19:58 39.86561 -104.61106 16983 ft 179 kts 358°
2026-04-23 19:58 39.87801 -104.60996 16989 ft 179 kts 359°
2026-04-23 19:58 39.89041 -104.60883 16988 ft 179 kts 359°
2026-04-23 19:58 39.90281 -104.60769 16982 ft 178 kts 359°
2026-04-23 19:59 39.91520 -104.60658 16992 ft 179 kts 359°
2026-04-23 19:59 39.92770 -104.60549 16990 ft 180 kts 359°
2026-04-23 19:59 39.94020 -104.60431 16982 ft 180 kts 359°
2026-04-23 19:59 39.95266 -104.60320 16979 ft 180 kts 359°
2026-04-23 20:00 39.96515 -104.60208 16969 ft 180 kts 359°
2026-04-23 20:00 39.97762 -104.60094 16960 ft 179 kts 359°
2026-04-23 20:00 39.99008 -104.59981 16950 ft 179 kts 359°
2026-04-23 20:00 40.00254 -104.59869 16944 ft 180 kts 359°
2026-04-23 20:01 40.01510 -104.59756 16934 ft 182 kts 359°
2026-04-23 20:01 40.02772 -104.59643 16924 ft 182 kts 359°
2026-04-23 20:01 40.04034 -104.59527 16915 ft 182 kts 359°
2026-04-23 20:01 40.05292 -104.59413 16903 ft 181 kts 358°
2026-04-23 20:02 40.06544 -104.59300 16897 ft 180 kts 358°
2026-04-23 20:02 40.07797 -104.59184 16886 ft 181 kts 358°
2026-04-23 20:02 40.09057 -104.59072 16877 ft 182 kts 358°
2026-04-23 20:02 40.10321 -104.58960 16864 ft 183 kts 358°
2026-04-23 20:03 40.11588 -104.58841 16857 ft 182 kts 358°
2026-04-23 20:03 40.12853 -104.58727 16845 ft 182 kts 358°
2026-04-23 20:03 40.14114 -104.58613 16835 ft 182 kts 358°
2026-04-23 20:03 40.15375 -104.58499 16825 ft 182 kts 358°
2026-04-23 20:04 40.16638 -104.58383 16819 ft 182 kts 358°
2026-04-23 20:04 40.17903 -104.58268 16812 ft 182 kts 357°
2026-04-23 20:04 40.19170 -104.58155 16798 ft 183 kts 357°
2026-04-23 20:04 40.20437 -104.58038 16789 ft 183 kts 357°
2026-04-23 20:05 40.21707 -104.57924 16784 ft 183 kts 357°
2026-04-23 20:05 40.22975 -104.57807 16782 ft 183 kts 357°
2026-04-23 20:05 40.24245 -104.57691 16791 ft 183 kts 357°
2026-04-23 20:05 40.25515 -104.57577 16789 ft 183 kts 357°
2026-04-23 20:06 40.26786 -104.57459 16790 ft 183 kts 357°
2026-04-23 20:06 40.28059 -104.57344 16793 ft 183 kts 356°
2026-04-23 20:06 40.29333 -104.57228 16797 ft 184 kts 356°
2026-04-23 20:06 40.30610 -104.57111 16797 ft 184 kts 356°
2026-04-23 20:07 40.31886 -104.56995 16793 ft 184 kts 356°
2026-04-23 20:07 40.33163 -104.56879 16800 ft 184 kts 356°
2026-04-23 20:07 40.34443 -104.56761 16801 ft 184 kts 356°
2026-04-23 20:07 40.35722 -104.56646 16805 ft 184 kts 356°
2026-04-23 20:08 40.37000 -104.56528 16806 ft 184 kts 356°
2026-04-23 20:08 40.38279 -104.56411 16812 ft 184 kts 356°
2026-04-23 20:08 40.39556 -104.56291 16813 ft 184 kts 356°
2026-04-23 20:08 40.40832 -104.56178 16815 ft 184 kts 356°
2026-04-23 20:09 40.42107 -104.56061 16820 ft 183 kts 355°
2026-04-23 20:09 40.43382 -104.55943 16817 ft 184 kts 355°
2026-04-23 20:09 40.44657 -104.55826 16821 ft 184 kts 355°
2026-04-23 20:09 40.45932 -104.55707 16823 ft 184 kts 356°
2026-04-23 20:10 40.46792 -104.55596 16823 ft 184 kts 357°
2026-04-23 20:10 40.48474 -104.55435 16820 ft 182 kts 354°
2026-04-23 20:10 40.49738 -104.55347 16828 ft 182 kts 354°
2026-04-23 20:10 40.51002 -104.55260 16828 ft 182 kts 354°
2026-04-23 20:11 40.52267 -104.55174 16827 ft 182 kts 354°
2026-04-23 20:11 40.53528 -104.55086 16831 ft 181 kts 354°
2026-04-23 20:11 40.54786 -104.55001 16838 ft 181 kts 354°
2026-04-23 20:11 40.56060 -104.54908 16845 ft 181 kts 354°
2026-04-23 20:12 40.57293 -104.54821 16848 ft 179 kts 354°
2026-04-23 20:12 40.58555 -104.54739 16854 ft 179 kts 353°
2026-04-23 20:12 40.59778 -104.54656 16859 ft 178 kts 354°
2026-04-23 20:12 40.61018 -104.54571 16865 ft 178 kts 353°
2026-04-23 20:13 40.62273 -104.54482 16872 ft 178 kts 354°
2026-04-23 20:13 40.63512 -104.54397 16876 ft 178 kts 353°
2026-04-23 20:13 40.64753 -104.54313 16877 ft 179 kts 354°
2026-04-23 20:13 40.65993 -104.54225 16882 ft 178 kts 354°
2026-04-23 20:14 40.67211 -104.54144 16885 ft 177 kts 353°
2026-04-23 20:14 40.68440 -104.54056 16883 ft 177 kts 354°
2026-04-23 20:14 40.69667 -104.53971 16890 ft 176 kts 353°
2026-04-23 20:14 40.70894 -104.53889 16890 ft 177 kts 354°
2026-04-23 20:15 40.72119 -104.53803 16894 ft 176 kts 353°
2026-04-23 20:15 40.73343 -104.53718 16897 ft 176 kts 354°
2026-04-23 20:15 40.74565 -104.53632 16902 ft 176 kts 353°
2026-04-23 20:15 40.75785 -104.53548 16902 ft 176 kts 353°
2026-04-23 20:16 40.77005 -104.53462 16903 ft 176 kts 353°
2026-04-23 20:16 40.78223 -104.53380 16907 ft 175 kts 353°
2026-04-23 20:16 40.79416 -104.53289 16786 ft 164 kts 353°
2026-04-23 20:16 40.80585 -104.53214 15986 ft 172 kts 353°
2026-04-23 20:17 40.81767 -104.53134 15357 ft 168 kts 352°
2026-04-23 20:17 40.82948 -104.53052 14726 ft 167 kts 353°
2026-04-23 20:17 40.84096 -104.52970 14142 ft 164 kts 353°
2026-04-23 20:17 40.85214 -104.52893 13532 ft 163 kts 354°
2026-04-23 20:18 40.86352 -104.52811 12882 ft 160 kts 352°
2026-04-23 20:18 40.87441 -104.52739 12283 ft 158 kts 352°
2026-04-23 20:18 40.88543 -104.52661 11673 ft 155 kts 353°
2026-04-23 20:18 40.89599 -104.52588 11090 ft 153 kts 353°
2026-04-23 20:19 40.90650 -104.52516 10525 ft 150 kts 353°
2026-04-23 20:19 40.91687 -104.52440 9955 ft 148 kts 352°
2026-04-23 20:19 40.92713 -104.52368 9371 ft 146 kts 352°
2026-04-23 20:19 40.93715 -104.52301 8770 ft 143 kts 352°
2026-04-23 20:20 40.94389 -104.52257 8347 ft 144 kts 352°
2026-04-23 20:20 40.95630 -104.52165 7925 ft 141 kts 353°
2026-04-23 20:20 40.96300 -104.52123 7926 ft 145 kts 352°
2026-04-23 20:20 40.97323 -104.52056 7931 ft 149 kts 352°
2026-04-23 20:21 40.98365 -104.51979 7933 ft 150 kts 354°
2026-04-23 20:21 40.99413 -104.51904 7944 ft 151 kts 352°
2026-04-23 20:21 41.00466 -104.51827 7941 ft 152 kts 352°
2026-04-23 20:21 41.01474 -104.51753 7928 ft 137 kts 353°
2026-04-23 20:22 41.02385 -104.51656 7927 ft 128 kts 356°
2026-04-23 20:22 41.03238 -104.51458 7927 ft 121 kts 355°
2026-04-23 20:22 41.04063 -104.51253 7857 ft 121 kts 357°
2026-04-23 20:22 41.04880 -104.51064 7853 ft 118 kts 356°
2026-04-23 20:23 41.05684 -104.50880 7866 ft 118 kts 359°
2026-04-23 20:23 41.06493 -104.50717 7837 ft 118 kts 356°
2026-04-23 20:23 41.07307 -104.50510 7821 ft 118 kts 357°
2026-04-23 20:23 41.08108 -104.50336 7808 ft 116 kts 357°
2026-04-23 20:24 41.08907 -104.50161 7781 ft 117 kts 357°
2026-04-23 20:24 41.09715 -104.49973 7750 ft 117 kts 358°
2026-04-23 20:24 41.10512 -104.49782 7747 ft 117 kts 359°
2026-04-23 20:24 41.11317 -104.49610 7750 ft 116 kts 355°
2026-04-23 20:25 41.11984 -104.49901 7749 ft 97 kts 308°
2026-04-23 20:25 41.12554 -104.50380 7748 ft 104 kts 340°
2026-04-23 20:25 41.13294 -104.50411 7750 ft 106 kts 328°
2026-04-23 20:25 41.13632 -104.51219 7766 ft 114 kts 273°
2026-04-23 20:26 41.13638 -104.52290 7766 ft 119 kts 278°
2026-04-23 20:26 41.13690 -104.53409 7765 ft 124 kts 280°
2026-04-23 20:26 41.13752 -104.54558 7764 ft 126 kts 278°
2026-04-23 20:26 41.13826 -104.55721 7768 ft 126 kts 280°
2026-04-23 20:27 41.13906 -104.56878 7767 ft 127 kts 279°
2026-04-23 20:27 41.13986 -104.58047 7774 ft 128 kts 279°
2026-04-23 20:27 41.14073 -104.59228 7781 ft 129 kts 279°
2026-04-23 20:27 41.14157 -104.60420 7781 ft 130 kts 279°
2026-04-23 20:28 41.14241 -104.61614 7784 ft 130 kts 279°
2026-04-23 20:28 41.14322 -104.62806 7787 ft 129 kts 279°
2026-04-23 20:28 41.14405 -104.63992 7799 ft 129 kts 278°
2026-04-23 20:28 41.14490 -104.65178 7797 ft 129 kts 278°
2026-04-23 20:29 41.14572 -104.66363 7797 ft 129 kts 279°
2026-04-23 20:29 41.14651 -104.67521 7790 ft 120 kts 279°
2026-04-23 20:29 41.14717 -104.68490 7789 ft 93 kts 282°
2026-04-23 20:29 41.14779 -104.69311 7677 ft 85 kts 282°
2026-04-23 20:30 41.14823 -104.69982 7580 ft 67 kts 282°
2026-04-23 20:30 41.14920 -104.71341 7394 ft 81 kts 282°
2026-04-23 20:30 41.14973 -104.72093 7285 ft 82 kts 281°
2026-04-23 20:31 41.15026 -104.72840 7167 ft 80 kts 279°
2026-04-23 20:31 41.15075 -104.73572 7046 ft 80 kts 280°
2026-04-23 20:31 41.15131 -104.74317 6925 ft 81 kts 279°
2026-04-23 20:31 41.15183 -104.75058 6797 ft 81 kts 278°
2026-04-23 20:32 41.15233 -104.75790 6679 ft 80 kts 276°
2026-04-23 20:32 41.15287 -104.76528 6557 ft 81 kts 276°
2026-04-23 20:32 41.15338 -104.77275 6433 ft 82 kts 275°
2026-04-23 20:32 41.15390 -104.78036 6301 ft 83 kts 275°
2026-04-23 20:33 41.15442 -104.78771 6164 ft 77 kts 275°
2026-04-23 20:33 41.15486 -104.79393 6109 ft 52 kts 275°
2026-04-23 20:33 41.15510 -104.79749 6124 ft 31 kts 276°
2026-04-23 20:33 41.15534 -104.80085 6127 ft 38 kts 275°
2026-04-23 20:34 41.15558 -104.80436 6131 ft 43 kts 276°
2026-04-23 20:34 41.15588 -104.80858 6142 ft 38 kts 275°
2026-04-23 20:34 41.15566 -104.81029 6146 ft 13 kts 199°
2026-04-23 20:34 41.15477 -104.81043 6144 ft 0 kts 193°